STARLINK-34900

Last updated on Tue Sep 16 2025 00:02:07 GMT+0000 (Coordinated Universal Time)

1 65374U 25190Z 25258.42062552 -.00290754 00000+0 -32735-2 0 9990 2 65374 53.1591 265.6217 0001307 350.4027 9.6963 15.62840753 2356
UTC large
Height (km)
Speed (km/s)
/
Latitude / Longitude
Inclination (degrees)
Orbital Period (minutes)
Azimuth
Elevation
Range (km)
Doppler Factor

Next 0 passes for location: London (51.5072 / 0.1276)

Sorry there are no passes over London.